User: anonymous   Login
Location: Unspecified
(0.0000°N, 0.0000°E)
Time: 20:25:06
(UTC+00:00)
Language:

Vela 6B - Orbit

View from above orbital plane
View from above orbital plane
View from above satellite
View from above satellite

Ground track
Ground track

The orbit data is extracted from the following two-line orbital elements,

1  4368U 70027B   19021.46449620  .00001039  00000-0  00000+0 0  9997
2  4368  36.7273 146.8021 8337569  91.8762   1.4908  0.21501099 31864
Epoch (UTC): 21 January 2019 11:08:52
Eccentricity: 0.8337569
inclination: 36.7273°
perigee height: 13188 km
apogee height: 209445 km
right ascension of ascending node: 146.8021°
argument of perigee: 91.8762°
revolutions per day: 0.21501099
mean anomaly at epoch: 1.4908°
orbit number at epoch: 3186

The dashed part of the orbit path shows where the satellite is in the earth's shadow,  

DLR